Location: Ailly
(50.0793°N, 1.9944°E)
Time: 21:11:26
(UTC+00:00)

Cosmos 2228 Rocket - Pass Details

Date: 15 January 2026
Orbit: 612 x 647 km, 82.5° (Epoch: 17 February)

Event Time Altitude Azimuth Distance (km) Brightness Sun altitude
Rises 05:41:37 0° 355° (N) 2,907 6.4 -19.1°
Reaches altitude 10° 05:44:00 10° 4° (N) 1,991 5.6 -18.8°
Maximum altitude 05:48:06 38° 73° (ENE) 949 4.5 -18.1°
Drops below altitude 10° 05:52:10 10° 142° (SE) 1,967 6.4 -17.5°
Sets 05:54:30 0° 150° (SSE) 2,866 7.1 -17.1°
